| time (UTC) | temp F | wind direction | speed knots | gust knots | rain 1hr in | rain 24hr in | rain mn in | humidity % | barometer mb |
| 20260504192012 | 73 | 247 | 0.9 | 2.6 | 0.00 | 0.00 | 0.00 | 38 | 1026.5 |
| 20260504191111 | 73 | 180 | 0.9 | 1.7 | 0.00 | 0.00 | 0.00 | 38 | 1026.6 |
| 20260504190113 | 73 | 180 | 1.7 | 4.3 | 0.00 | 0.00 | 0.00 | 38 | 1026.8 |
| 20260504185212 | 73 | 180 | 1.7 | 3.5 | 0.00 | 0.00 | 0.00 | 38 | 1026.8 |
| 20260504184213 | 73 | 180 | 0.9 | 2.6 | 0.00 | 0.00 | 0.00 | 36 | 1027.0 |
| 20260504183313 | 72 | 180 | 0.9 | 1.7 | 0.00 | 0.00 | 0.00 | 36 | 1027.1 |
| 20260504181314 | 72 | 157 | 0.9 | 1.7 | 0.00 | 0.00 | 0.00 | 37 | 1027.3 |
| 20260504180314 | 72 | 157 | 0.9 | 4.3 | 0.00 | 0.00 | 0.00 | 38 | 1027.3 |
| 20260504174315 | 71 | 172 | 0.9 | 3.5 | 0.00 | 0.00 | 0.00 | 37 | 1027.5 |
| 20260504173316 | 71 | 157 | 0.9 | 3.5 | 0.00 | 0.00 | 0.00 | 38 | 1027.4 |
| 20260504172313 | 71 | 80 | 0.0 | 0.9 | 0.00 | 0.00 | 0.00 | 37 | 1027.6 |
| 20260504171313 | 70 | 183 | 0.9 | 3.5 | 0.00 | 0.00 | 0.00 | 38 | 1027.7 |
| 20260504170311 | 70 | 224 | 0.0 | 2.6 | 0.00 | 0.00 | 0.00 | 36 | 1027.8 |
| 20260504160413 | 69 | 202 | 0.0 | 0.9 | 0.00 | 0.00 | 0.00 | 34 | 1028.4 |
| 20260504150512 | 69 | 180 | 0.9 | 5.2 | 0.00 | 0.00 | 0.00 | 34 | 1028.9 |
| 20260504140612 | 66 | 292 | 1.7 | 4.3 | 0.00 | 0.00 | 0.00 | 38 | 1029.2 |
| 20260504100113 | 44 | 225 | 0.0 | 0.9 | 0.00 | 0.00 | 0.00 | 70 | 1029.6 |
| 20260504081112 | 44 | 225 | 0.0 | 0.0 | 0.00 | 0.00 | 0.00 | 67 | 1028.9 |
| 20260504080113 | 44 | 225 | 0.0 | 0.0 | 0.00 | 0.00 | 0.00 | 67 | 1028.8 |
| 20260504070312 | 46 | 292 | 0.0 | 0.0 | 0.00 | 0.00 | 0.00 | 66 | 1028.4 |
| 20260504050611 | 42 | 292 | 0.0 | 0.0 | 0.00 | 0.00 | 0.00 | 69 | 1028.1 |
| 20260504045615 | 42 | 292 | 0.0 | 0.0 | 0.00 | 0.00 | 0.00 | 69 | 1028.1 |
| 20260504044612 | 42 | 292 | 0.0 | 0.0 | 0.00 | 0.00 | 0.00 | 68 | 1028.1 |
| 20260504042612 | 42 | 292 | 0.0 | 0.0 | 0.00 | 0.00 | 0.00 | 65 | 1028.1 |
| 20260504041612 | 42 | 292 | 0.0 | 0.0 | 0.00 | 0.00 | 0.00 | 65 | 1028.1 |
| 20260504040612 | 43 | 292 | 0.0 | 0.0 | 0.00 | 0.00 | 0.00 | 65 | 1028.1 |
| 20260504035615 | 43 | 292 | 0.0 | 0.0 | 0.00 | 0.00 | 0.00 | 63 | 1028.1 |
| 20260504034617 | 43 | 292 | 0.0 | 0.0 | 0.00 | 0.00 | 0.00 | 63 | 1028.1 |
| 20260504033715 | 43 | 292 | 0.0 | 0.0 | 0.00 | 0.00 | 0.00 | 62 | 1028.0 |
| 20260504031719 | 43 | 292 | 0.0 | 0.0 | 0.00 | 0.00 | 0.00 | 62 | 1028.0 |
| 20260504030716 | 43 | 292 | 0.0 | 0.0 | 0.00 | 0.00 | 0.00 | 61 | 1027.9 |
| 20260504025719 | 43 | 292 | 0.0 | 0.0 | 0.00 | 0.00 | 0.00 | 64 | 1027.9 |
| 20260504024715 | 44 | 292 | 0.0 | 0.0 | 0.00 | 0.00 | 0.00 | 63 | 1028.0 |
| 20260504023718 | 44 | 292 | 0.0 | 0.0 | 0.00 | 0.00 | 0.00 | 60 | 1028.0 |
| 20260504021717 | 45 | 292 | 0.0 | 0.0 | 0.00 | 0.00 | 0.00 | 57 | 1027.9 |
| 20260504020815 | 45 | 292 | 0.0 | 0.0 | 0.00 | 0.00 | 0.00 | 55 | 1027.9 |
| 20260504015818 | 46 | 292 | 0.0 | 0.0 | 0.00 | 0.00 | 0.00 | 54 | 1027.9 |
| 20260504014817 | 46 | 292 | 0.0 | 0.0 | 0.00 | 0.00 | 0.00 | 52 | 1028.0 |
| 20260504011916 | 48 | 292 | 0.0 | 0.0 | 0.00 | 0.00 | 0.00 | 48 | 1027.7 |
| 20260504011016 | 48 | 292 | 0.0 | 0.0 | 0.00 | 0.00 | 0.00 | 47 | 1027.7 |
| 20260504010017 | 49 | 292 | 0.0 | 0.0 | 0.00 | 0.00 | 0.00 | 48 | 1027.6 |
| 20260504005116 | 50 | 292 | 0.0 | 0.0 | 0.00 | 0.00 | 0.00 | 46 | 1027.4 |
| 20260504004116 | 51 | 292 | 0.0 | 0.0 | 0.00 | 0.00 | 0.00 | 44 | 1027.3 |
| 20260504003116 | 51 | 292 | 0.0 | 0.0 | 0.00 | 0.00 | 0.00 | 42 | 1027.2 |
| 20260504002215 | 51 | 292 | 0.0 | 0.0 | 0.00 | 0.00 | 0.00 | 39 | 1027.0 |
| 20260504001219 | 52 | 292 | 0.0 | 0.0 | 0.00 | 0.00 | 0.00 | 38 | 1027.0 |
| 20260504000317 | 52 | 292 | 0.0 | 0.0 | 0.00 | 0.00 | 0.00 | 38 | 1026.8 |
| 20260503235317 | 53 | 292 | 0.0 | 0.0 | 0.00 | 0.00 | 0.00 | 37 | 1026.8 |
| 20260503234317 | 54 | 292 | 0.0 | 0.0 | 0.00 | 0.00 | 0.00 | 36 | 1026.7 |
| 20260503233317 | 55 | 292 | 0.0 | 0.0 | 0.00 | 0.00 | 0.00 | 34 | 1026.5 |
| 20260503232317 | 56 | 292 | 0.0 | 0.9 | 0.00 | 0.00 | 0.00 | 32 | 1026.4 |
| 20260503231317 | 56 | 312 | 1.7 | 2.6 | 0.00 | 0.00 | 0.00 | 31 | 1026.3 |
| 20260503225419 | 57 | 304 | 0.9 | 3.5 | 0.00 | 0.00 | 0.00 | 33 | 1026.1 |
| 20260503224417 | 57 | 315 | 1.7 | 5.2 | 0.00 | 0.00 | 0.00 | 33 | 1026.1 |
| 20260503223515 | 57 | 292 | 1.7 | 4.3 | 0.00 | 0.00 | 0.00 | 33 | 1026.0 |
| 20260503222516 | 56 | 298 | 2.6 | 4.3 | 0.00 | 0.00 | 0.00 | 33 | 1026.1 |
| 20260503221518 | 57 | 298 | 3.5 | 7.0 | 0.00 | 0.00 | 0.00 | 34 | 1026.1 |
| 20260503220516 | 57 | 291 | 1.7 | 4.3 | 0.00 | 0.00 | 0.00 | 34 | 1026.0 |
| 20260503215517 | 57 | 297 | 2.6 | 4.3 | 0.00 | 0.00 | 0.00 | 35 | 1026.0 |
| 20260503213515 | 56 | 304 | 2.6 | 6.1 | 0.00 | 0.00 | 0.00 | 34 | 1025.9 |
| 20260503211516 | 56 | 254 | 1.7 | 3.5 | 0.00 | 0.00 | 0.00 | 35 | 1025.8 |
| 20260503210517 | 56 | 317 | 3.5 | 5.2 | 0.00 | 0.00 | 0.00 | 35 | 1025.7 |
| 20260503205518 | 56 | 301 | 5.2 | 7.0 | 0.00 | 0.00 | 0.00 | 36 | 1025.8 |
| 20260503204518 | 55 | 290 | 1.7 | 5.2 | 0.00 | 0.00 | 0.00 | 37 | 1025.7 |
| 20260503203516 | 55 | 307 | 3.5 | 6.1 | 0.00 | 0.00 | 0.00 | 40 | 1025.8 |
| 20260503202517 | 55 | 322 | 1.7 | 3.5 | 0.00 | 0.00 | 0.00 | 39 | 1026.0 |
| 20260503200616 | 55 | 312 | 1.7 | 3.5 | 0.00 | 0.00 | 0.00 | 37 | 1025.9 |
| 20260503195715 | 56 | 324 | 4.3 | 8.7 | 0.00 | 0.00 | 0.00 | 37 | 1025.9 |